DW0326 Weather Reports


Display with metric or nautical units.
time (UTC)temp
F
wind
direction
speed
MPH
gust
MPH
rain 1hr
in
rain 24hr
in
rain mn
in
humidity
%
barometer
mb
20260906083956 82 0 0.0 0.0 0.00 0.00 0.00 90 1007.5
20260906083056 82 0 0.0 0.0 0.00 0.00 0.00 90 1007.5
20260906082156 82 0 0.0 0.0 0.00 0.00 0.00 90 1007.5
20260906081256 83 0 0.0 0.0 0.00 0.00 0.00 89 1007.5
20260906075456 82 0 0.0 0.0 0.00 0.00 0.00 89 1007.7
20260906074557 82 0 0.0 0.0 0.00 0.00 0.00 89 1007.9
20260906073656 83 0 0.0 0.0 0.00 0.00 0.00 89 1007.9
20260906070957 83 0 0.0 0.0 0.00 0.00 0.00 89 1008.0
20260906065156 83 0 0.0 0.0 0.00 0.00 0.00 88 1008.0
20260906064256 83 0 0.0 0.0 0.00 0.00 0.00 88 1008.0
20260906063356 83 0 0.0 0.0 0.00 0.00 0.00 88 1008.0
20260906062457 83 0 0.0 0.0 0.00 0.00 0.00 88 1008.0
20260906054856 83 213 0.0 4.0 0.00 0.00 0.00 88 1008.0
20260906053957 83 0 0.0 0.0 0.00 0.00 0.00 88 1008.0
20260906053056 83 223 0.0 5.0 0.00 0.00 0.00 88 1008.0
20260906052156 83 227 0.0 6.0 0.00 0.00 0.00 88 1008.1
20260906051256 83 205 1.0 7.0 0.00 0.00 0.00 88 1008.1
20260906050357 83 202 0.0 9.0 0.00 0.00 0.00 88 1008.1
20260906045457 83 179 0.0 6.0 0.00 0.00 0.00 88 1008.1
20260906044556 84 0 0.0 0.0 0.00 0.00 0.00 88 1008.1
20260906043657 84 0 0.0 0.0 0.00 0.00 0.00 88 1008.1
20260906042756 84 185 1.0 9.0 0.00 0.00 0.00 88 1008.1
20260906041856 84 185 2.0 10.0 0.00 0.00 0.00 87 1008.2
20260906040957 84 186 0.0 1.0 0.00 0.00 0.00 87 1008.2
20260906040056 84 185 1.0 7.0 0.00 0.00 0.00 87 1008.2
20260906035157 84 184 0.0 6.0 0.00 0.00 0.00 87 1008.2
20260906033356 84 0 0.0 0.0 0.00 0.00 0.00 86 1008.2
20260906030656 84 178 0.0 6.0 0.00 0.00 0.00 86 1008.0
20260906025757 85 178 0.0 8.0 0.00 0.00 0.00 85 1008.0
20260906024857 85 178 0.0 8.0 0.00 0.00 0.00 86 1007.7
20260906023956 85 172 1.0 5.0 0.00 0.00 0.00 85 1007.7
20260906023057 85 0 0.0 0.0 0.00 0.00 0.00 85 1007.5
20260906022156 85 171 0.0 7.0 0.00 0.00 0.00 84 1007.5
20260906020356 85 175 0.0 6.0 0.00 0.00 0.00 83 1007.3
20260906015456 86 184 0.0 4.0 0.00 0.00 0.00 83 1007.3
20260906014556 86 188 1.0 8.0 0.00 0.00 0.00 83 1007.1
20260906013656 86 199 1.0 8.0 0.00 0.00 0.00 82 1007.1
20260906012756 86 161 0.0 4.0 0.00 0.00 0.00 83 1007.1
20260906011856 86 0 0.0 0.0 0.00 0.00 0.00 83 1007.0
20260906010956 86 161 0.0 3.0 0.00 0.00 0.00 82 1007.0
20260906010056 87 0 0.0 0.0 0.00 0.00 0.00 82 1007.0
20260906005156 87 0 0.0 0.0 0.00 0.00 0.00 82 1007.0
20260906003356 87 120 0.0 10.0 0.00 0.00 0.00 80 1007.0
20260906002456 88 109 1.0 7.0 0.00 0.00 0.00 79 1007.0
20260906001556 88 103 0.0 5.0 0.00 0.00 0.00 77 1007.2
20260905235756 88 106 0.0 5.0 0.00 0.00 0.00 73 1007.5
20260905233956 88 0 0.0 0.0 0.00 0.01 0.00 73 1007.5
20260905233056 88 0 0.0 0.0 0.00 0.01 0.00 74 1007.5
20260905231256 89 0 0.0 0.0 0.00 0.01 0.00 75 1007.3
20260905230356 89 101 0.0 6.0 0.00 0.01 0.00 74 1007.1
20260905225456 89 0 0.0 0.0 0.00 0.01 0.00 73 1007.1
20260905224556 90 0 0.0 0.0 0.00 0.01 0.00 77 1007.0
20260905223656 90 0 0.0 0.0 0.00 0.01 0.00 75 1007.0
20260905222756 90 213 0.0 8.0 0.00 0.01 0.00 75 1007.0
20260905221856 90 0 0.0 0.0 0.00 0.01 0.00 73 1007.0
20260905220956 90 206 0.0 5.0 0.00 0.01 0.00 74 1007.0
20260905220056 91 206 0.0 5.0 0.00 0.01 0.00 72 1007.0
20260905214256 92 0 0.0 0.0 0.00 0.01 0.00 69 1007.0
20260905212456 93 0 0.0 0.0 0.00 0.01 0.00 69 1007.3
20260905211556 94 0 0.0 0.0 0.00 0.01 0.00 68 1007.4
20260905210656 94 186 0.0 4.0 0.00 0.01 0.00 68 1007.4
20260905205756 94 186 1.0 9.0 0.00 0.01 0.00 66 1007.1
20260905204855 94 182 0.0 4.0 0.00 0.01 0.00 67 1007.4
20260905203956 94 184 0.0 4.0 0.00 0.01 0.00 66 1007.4
20260905203056 94 170 1.0 11.0 0.00 0.01 0.00 66 1007.5
20260905202156 94 155 0.0 6.0 0.00 0.01 0.00 67 1007.5
20260905201256 93 0 0.0 0.0 0.00 0.01 0.00 71 1007.6
20260905195456 92 143 0.0 5.0 0.00 0.01 0.00 70 1008.0
20260905194555 92 172 1.0 7.0 0.00 0.01 0.00 72 1008.0
20260905193656 91 181 3.0 12.0 0.00 0.01 0.00 72 1008.0
20260905192756 90 115 0.0 6.0 0.00 0.01 0.00 78 1008.4
20260905191856 90 122 0.0 3.0 0.00 0.01 0.00 76 1008.5
20260905190956 89 99 0.0 4.0 0.00 0.01 0.00 77 1008.5
20260905190056 89 124 0.0 4.0 0.00 0.01 0.00 78 1008.6
20260905184256 88 0 0.0 0.0 0.00 0.01 0.00 80 1008.8
20260905183356 88 0 0.0 0.0 0.00 0.01 0.00 80 1009.0
20260905182456 89 176 2.0 10.0 0.00 0.01 0.00 77 1009.0
20260905181556 90 161 1.0 10.0 0.00 0.01 0.00 75 1009.2
20260905180656 90 34 0.0 4.0 0.00 0.01 0.00 73 1009.2
20260905174856 92 0 0.0 0.0 0.00 0.17 0.00 70 1009.6
20260905173956 93 8 0.0 3.0 0.00 0.26 0.00 71 1009.6
20260905173055 93 7 0.0 5.0 0.00 0.36 0.00 70 1009.6
20260905172156 93 0 0.0 0.0 0.00 0.36 0.00 69 1009.6
20260905171256 92 0 0.0 0.0 0.00 0.36 0.00 70 1009.6
20260905170356 92 0 0.0 0.0 0.00 0.36 0.00 68 1009.8
20260905165456 90 0 0.0 0.0 0.00 0.36 0.00 71 1009.8
20260905164556 89 0 0.0 0.0 0.00 0.36 0.00 73 1010.0
20260905161856 89 0 0.0 0.0 0.00 0.36 0.00 76 1009.9
20260905160956 89 0 0.0 0.0 0.00 0.36 0.00 77 1009.9
20260905160056 88 0 0.0 0.0 0.00 0.36 0.00 80 1010.0
20260905155156 88 0 0.0 0.0 0.00 0.36 0.00 78 1010.0
20260905154256 87 0 0.0 0.0 0.00 0.36 0.00 84 1010.1
20260905153355 86 0 0.0 0.0 0.00 0.36 0.00 85 1010.1
20260905152455 86 0 0.0 0.0 0.00 0.36 0.00 84 1010.1
20260905151556 86 0 0.0 0.0 0.00 0.36 0.00 85 1010.1
20260905150656 86 0 0.0 0.0 0.00 0.36 0.00 86 1010.1
20260905145755 86 0 0.0 0.0 0.00 0.36 0.00 86 1010.1
20260905144856 86 0 0.0 0.0 0.00 0.36 0.00 87 1010.0
20260905143955 85 0 0.0 0.0 0.00 0.36 0.00 89 1010.0
20260905143056 85 0 0.0 0.0 0.00 0.36 0.00 90 1010.0
20260905142155 84 0 0.0 0.0 0.00 0.36 0.00 92 1010.0
20260905141256 83 0 0.0 0.0 0.00 0.36 0.00 94 1009.9
20260905135456 81 0 0.0 0.0 0.00 0.36 0.00 97 1009.8
20260905134556 81 0 0.0 0.0 0.00 0.36 0.00 98 1009.6
20260905133656 80 0 0.0 0.0 0.00 0.36 0.00 99 1009.6
20260905132755 80 0 0.0 0.0 0.00 0.36 0.00 98 1009.6
20260905131855 79 0 0.0 0.0 0.00 0.36 0.00 98 1009.6
20260905130055 79 0 0.0 0.0 0.00 0.36 0.00 98 1009.6
20260905125155 78 0 0.0 0.0 0.00 0.36 0.00 98 1009.6
20260905124255 78 0 0.0 0.0 0.00 0.36 0.00 97 1009.3
20260905121556 78 0 0.0 0.0 0.00 0.36 0.00 97 1009.1
20260905120655 78 0 0.0 0.0 0.00 0.36 0.00 97 1009.1
20260905114855 78 0 0.0 0.0 0.00 0.36 0.00 97 1008.6
20260905113056 78 0 0.0 0.0 0.00 0.36 0.00 96 1008.5
20260905111255 78 0 0.0 0.0 0.00 0.36 0.00 96 1008.5
20260905110356 79 0 0.0 0.0 0.00 0.36 0.00 96 1008.2
20260905105456 79 0 0.0 0.0 0.00 0.36 0.00 96 1008.2
20260905104556 79 0 0.0 0.0 0.00 0.36 0.00 96 1008.2
20260905103655 79 0 0.0 0.0 0.00 0.36 0.00 95 1008.2
20260905102755 79 0 0.0 0.0 0.00 0.36 0.00 95 1008.2
20260905101855 79 0 0.0 0.0 0.00 0.36 0.00 95 1008.3
20260905100956 79 0 0.0 0.0 0.00 0.36 0.00 95 1008.3
20260905095155 80 0 0.0 0.0 0.00 0.36 0.00 94 1008.3
20260905094256 80 0 0.0 0.0 0.00 0.36 0.00 94 1008.2
20260905092456 80 0 0.0 0.0 0.00 0.36 0.00 94 1008.3
20260905091555 80 0 0.0 0.0 0.00 0.37 0.00 94 1008.3
20260905085755 80 0 0.0 0.0 0.00 0.37 0.00 94 1008.0